Volver al catálogo

DELTA 1 DEB

ActivoUNKNOWN
NORAD 9835·DEBRIS·🇺🇸 United States

Lanzado Nov 6, 1973 desde Vandenberg Space Force Base

Loading…

Próximos Pases (próximas 24 horas)

TLE

ActualizadoSource: Space-Track

Época: Sep 14, 2026, 09:13 UTC

1 09835U 73086GD  26257.38471559  .00000009  00000-0  69485-3 0  9997
2 09835 101.3258  52.0127 0667671 274.9431 103.5309 11.33509473596677

Sigue DELTA 1 DEB en tiempo real con AllMySat

Download on the App Store